NOAA NWS Hourly Roundups by Site

Regional Weather Roundup for Bismarck, ND

To Select Another Site Choose from List

Select Site:  

000
ASUS43 KBIS 231010
RWRBIS

NWR BROADCAST TEXT
NATIONAL WEATHER SERVICE BISMARCK ND
500 AM CDT MON MAY 23 2022

NOTE: "FAIR" INDICATES FEW OR NO CLOUDS BELOW 12,000 FEET WITH NO
SIGNIFICANT WEATHER AND/OR OBSTRUCTIONS TO VISIBILITY.


CITY           SKY/WX    TMP DP  RH WIND       PRES   REMARKS
WILLISTON      CLEAR     40  30  67 S10       30.12F
MINOT          PTCLDY    47  30  51 S13       30.16F
MINOT AFB      MOCLDY    44  20  38 SW9       30.14F
BISMARCK       PTCLDY    38  32  79 SE7       30.21F
DICKINSON      MOCLDY    41  31  67 E7        30.14S
GARRISON         N/A     39  32  76 SE5       30.18F
HETTINGER ARPT PTCLDY    42  31  64 E9        30.14F
JAMESTOWN      PTCLDY    37  32  82 S6        30.24S
CARRINGTON     FAIR      41  36  81 S8        30.25F
HAZEN          CLOUDY    45  34  65 S12       30.19F
MANDAN         MOCLDY    41  34  75 SE10      30.20F
OAKES          CLOUDY    36  36 100 S8        30.28S
RUGBY          FAIR      39  32  75 S9        30.19F
STANLEY        FAIR      39  32  75 CALM      30.16S
TIOGA          FAIR      36  32  87 CALM      30.16F
WATFORD CITY   MOCLDY    45  32  61 S12       30.15S
$$

CITY           SKY/WX    TMP DP  RH WIND       PRES   REMARKS
GRAND FORKS    PTCLDY    39  34  82 S7        30.23S
GRAND FORKS AF PTCLDY    44  34  68 SW9       30.23S
DEVILS LAKE    CLEAR     45  34  65 SW9       30.22F
FARGO          CLEAR     39  31  72 S6        30.28S
CANDO          FAIR      37  37 100 SW6       30.22F
CAVALIER       CLOUDY    48  34  57 SW8       30.20S
GWINNER        PTCLDY    41  41 100 SW9       30.28S
LANGDON        FAIR      37  37 100 SW10      30.21S
ROLLA          FAIR      39  39 100 SW10      30.19S
WALHALLA       MOCLDY    48  32  53 W6        30.19S
$$

CITY           SKY/WX    TMP DP  RH WIND       PRES   REMARKS
ABERDEEN       MOCLDY    46  37  71 SE7       30.28S
MOBRIDGE       CLOUDY    47  32  56 SE7       30.20R
BUFFALO          N/A     43  31  62 CALM      30.09S
RAPID CITY     MOCLDY    37  32  82 E6        30.09F
GLASGOW        PTCLDY    42  37  82 SE12      30.07F
SIDNEY         PTCLDY    45  36  70 S9        30.13F
WOLF POINT     PTCLDY    35  29  78 CALM      30.11S
GLENDIVE       LGT RAIN  45  42  89 SE15      30.13F
MILES CITY     PTCLDY    45  42  89 NE7       30.09F
BAKER          CLOUDY    44  36  73 CALM      30.14R
$$

CITY           SKY/WX    TMP DP  RH WIND       PRES   REMARKS
BILLINGS       PTCLDY    42  37  82 SW12      30.12S
GREAT FALLS    PTCLDY    39  30  70 SW10      30.10F
REGINA         MOCLDY    43  32  65 S6        30.07S
ESTEVAN        CLOUDY    45  32  61 S9        30.11F
$$



 

View Past Reports for Bismarck, ND.

Products Courtesy of NOAA-NWS
NWS Information Parsing Script by Ken True at Saratoga Weather - Script by SE Lincoln Weather.